Location: Kelowna
(49.8880°N, 119.4960°W)
Time: 21:05:01
(UTC-07:00)

NANOSAT C BR1 - Visible Passes

Search period start: 15 April 2024 00:00
Search period end: 25 April 2024 00:00
Orbit: 556 x 568 km, 98.1° (Epoch: 15 April)

Date Brightness Start Highest point End Pass type
(mag) Time Alt. Az. Time Alt. Az. Time Alt. Az.
15 Apr ? 04:57:02 10° NNE 05:01:05 84° ESE 05:05:06 10° SSW visible
16 Apr ? 04:56:25 10° NNE 05:00:29 82° ESE 05:04:30 10° SSW visible
17 Apr ? 04:55:48 10° NNE 04:59:50 81° ESE 05:03:53 10° SSW visible
18 Apr ? 04:55:08 10° NNE 04:59:11 79° ESE 05:03:13 10° S visible
19 Apr ? 04:54:27 10° NNE 04:58:30 77° ESE 05:02:32 10° S visible
20 Apr ? 04:53:44 10° NNE 04:57:47 76° ESE 05:01:49 10° S visible
21 Apr ? 04:53:00 10° NNE 04:57:03 74° ESE 05:01:05 10° S visible
22 Apr ? 04:52:14 10° NNE 04:56:17 72° ESE 05:00:18 10° S visible
23 Apr ? 04:51:26 10° NNE 04:55:29 71° ESE 04:59:31 10° S visible
24 Apr ? 04:50:37 10° NNE 04:54:40 69° ESE 04:58:41 10° S visible
